Wind_Speed
27 26 24 22 21 22 24 26 26 27 27 26 26 27 27 28 28 28 28 28 28 27 28 30 32 32 30 27 24 24 24 23 22 21 22 22 23 24 24 23 22 21 20 19 19 18 18 17 17 17 16 16 16 16 16 16 16 16 15 15 15 15 15 15 15 15 14 14 14 13 13 14 14 14 13 12 12 12 12 12 12 12 12 13 13 13
28 26 24 23 23 24 26 27 28 28 28 28 28 28 28 28 28 28 28 28 28 28 29 30 31 31 28 25 24 24 24 23 22 22 22 23 23 23 23 23 22 21 20 19 18 18 18 17 17 16 16 16 16 16 16 16 16 16 16 16 15 15 15 15 15 15 14 14 14 13 13 14 14 14 13 13 12 12 12 12 12 12 12 12 13 13
27 26 26 25 25 27 29 29 30 31 31 30 30 30 29 28 27 27 27 27 27 28 28 30 31 30 27 26 25 25 24 23 23 23 23 23 23 23 22 22 21 20 19 19 18 18 17 17 16 16 16 16 16 16 16 16 16 16 16 16 16 15 15 15 15 14 14 14 14 14 13 13 13 13 13 13 13 13 12 12 12 12 12 12 13 13
26 26 27 28 28 29 31 31 32 32 32 31 31 30 29 27 26 26 26 26 26 27 28 30 30 29 27 27 26 26 25 25 25 25 24 24 23 22 22 21 21 20 19 18 18 18 17 17 16 16 16 15 15 16 16 16 16 16 16 16 15 15 15 15 15 14 14 14 14 14 14 14 13 14 14 13 13 13 12 12 12 12 12 12 13 13
26 27 28 29 30 31 31 31 32 31 31 31 31 30 29 28 27 25 25 26 26 27 28 29 30 29 28 28 28 27 27 27 27 26 25 23 23 22 22 21 20 19 18 18 18 17 17 16 16 16 16 16 16 16 16 16 16 16 16 15 15 15 15 15 15 15 15 15 14 14 14 14 14 14 14 14 13 13 13 12 12 12 12 12 12 13
26 27 29 31 32 32 32 32 32 32 32 32 31 31 31 29 28 26 26 26 26 27 28 29 30 30 29 29 29 29 30 29 28 27 25 23 23 22 22 21 20 19 18 17 17 17 17 16 16 16 16 16 16 16 16 16 16 16 15 15 15 15 15 15 15 15 15 15 15 14 14 14 14 13 13 13 13 13 13 13 13 12 12 12 13 13
27 28 29 31 32 33 34 34 35 35 34 34 34 34 33 31 29 28 27 27 27 28 29 30 31 31 31 31 32 32 32 31 29 27 25 24 23 22 22 20 19 18 17 17 17 17 16 16 16 16 16 16 16 16 16 16 16 16 15 15 15 15 15 15 15 15 15 15 14 14 14 14 13 13 13 13 13 13 13 13 13 13 13 13 13 13
27 28 29 31 32 34 35 36 36 37 37 37 37 36 35 33 31 30 29 28 29 29 31 32 33 34 35 35 35 35 34 32 29 27 25 24 23 22 21 20 19 18 17 17 16 16 16 16 16 16 16 17 16 16 16 16 16 15 15 15 15 15 15 15 15 15 15 15 14 14 14 13 13 13 13 13 13 13 13 13 13 13 13 13 13 13
27 28 29 30 32 34 35 36 36 36 37 37 37 36 35 33 32 31 30 29 29 30 32 33 35 36 37 37 37 36 35 32 30 28 26 24 23 22 21 20 18 17 16 16 16 16 16 16 16 16 17 17 17 16 16 16 16 15 15 15 15 15 15 15 15 15 15 14 14 14 14 13 13 13 13 13 13 13 13 13 13 13 13 13 13 13
28 28 29 29 31 32 34 35 35 35 36 36 36 36 35 33 32 31 30 30 30 31 32 33 35 36 37 37 37 36 34 32 30 27 25 23 22 21 20 18 17 16 15 15 15 16 16 16 16 16 17 17 16 16 16 16 16 16 16 16 16 16 15 15 15 15 15 14 14 14 14 13 13 13 13 14 14 14 14 14 14 14 14 14 14 13
28 28 29 30 30 31 32 34 34 34 34 35 35 35 34 33 32 31 30 30 30 31 32 33 34 34 35 35 35 34 32 30 28 26 24 22 21 19 18 16 15 15 15 16 16 16 16 16 16 16 16 16 16 16 16 16 16 16 16 16 16 16 16 15 15 15 15 14 14 14 14 14 14 14 14 14 14 14 14 14 14 14 14 14 14 14
29 29 30 30 31 31 32 33 33 33 34 34 34 33 32 32 31 31 30 30 30 31 31 32 32 33 33 32 32 31 29 27 25 23 21 20 18 17 15 14 14 15 16 17 17 16 16 16 16 16 16 16 16 16 16 16 16 16 16 16 16 16 16 16 15 15 15 15 14 14 14 14 14 14 14 14 14 14 14 14 14 14 14 14 14 14
30 30 30 30 31 31 32 32 33 33 33 33 32 32 31 31 31 31 31 30 30 30 31 31 31 31 31 30 29 28 26 24 23 21 19 17 16 15 14 14 15 16 17 17 17 17 16 16 16 16 16 16 16 16 16 16 16 16 16 16 16 16 16 16 15 15 15 15 14 14 14 14 14 14 14 14 15 15 15 15 15 15 15 15 15 15
31 31 31 31 31 31 31 32 32 32 32 32 32 31 31 31 31 31 31 31 30 30 30 30 30 29 29 28 26 25 23 22 20 19 17 16 15 14 15 16 17 18 18 17 17 16 16 16 16 16 16 16 16 16 16 16 16 16 16 16 16 16 16 16 15 15 15 15 14 14 14 14 14 15 15 15 15 15 15 15 15 15 15 15 15 15
31 31 31 31 31 31 31 32 32 32 32 32 31 31 31 31 31 31 30 30 29 29 29 28 28 28 27 25 24 22 21 20 18 17 16 15 15 16 17 17 18 17 17 16 16 16 16 16 16 16 16 16 16 16 16 16 16 16 16 16 16 16 16 15 15 15 15 15 15 15 15 15 15 15 15 15 16 16 16 16 16 16 16 16 16 16
31 32 32 32 32 31 31 32 32 32 31 31 31 31 30 30 30 30 29 29 28 28 27 27 26 26 25 24 22 20 19 18 17 16 16 16 17 18 18 17 17 16 16 16 16 16 16 16 16 16 16 16 16 16 16 16 16 16 16 16 16 16 16 15 15 15 15 15 15 15 15 15 15 16 16 16 16 16 16 16 17 17 16 16 16 16
32 32 32 32 32 32 32 32 32 31 31 30 30 30 29 29 29 28 28 27 27 26 26 25 24 23 22 22 20 19 18 17 16 16 17 17 18 18 17 16 16 15 15 15 15 16 16 16 16 16 16 16 16 16 16 16 16 16 16 16 16 16 16 15 15 15 15 15 15 15 16 16 16 16 16 16 17 17 17 17 17 17 17 17 17 17
31 32 32 32 32 31 31 31 31 31 30 29 29 28 28 27 27 26 26 26 25 25 24 24 23 22 20 19 18 17 17 16 16 17 17 18 17 17 16 15 15 15 15 15 15 15 15 16 16 16 16 16 16 16 16 16 16 16 16 16 16 16 16 15 15 15 15 16 16 16 16 16 16 17 17 17 17 17 17 17 18 18 18 18 17 17
31 31 31 31 31 31 31 30 30 29 28 27 27 26 25 25 25 24 24 24 23 23 22 21 20 19 17 17 16 16 16 16 16 17 17 17 16 15 15 14 14 14 14 14 15 15 15 15 16 16 16 16 16 16 16 16 16 16 16 16 16 16 16 16 16 16 16 16 16 16 16 17 17 17 17 17 17 18 18 18 18 18 18 18 18 18
30 31 31 31 30 30 29 29 28 27 26 25 24 23 23 22 22 21 21 21 20 19 18 17 16 15 14 15 15 16 16 16 16 16 16 15 14 14 14 13 13 14 14 14 14 14 15 15 15 15 15 15 15 15 15 16 16 16 16 16 16 16 16 16 16 16 16 16 17 17 17 17 17 17 17 18 18 18 18 18 18 18 18 18 18 18
29 29 29 29 28 28 27 26 25 24 23 22 21 20 19 19 18 18 17 16 15 14 13 12 12 13 13 15 16 16 16 16 15 14 14 13 13 13 13 13 13 13 13 14 14 14 14 15 15 15 15 15 15 15 15 16 16 16 16 16 16 16 16 16 16 16 17 17 17 17 17 17 17 18 18 18 18 18 18 19 19 19 19 19 19 19
27 27 27 26 26 25 24 23 22 21 19 18 17 16 16 15 14 13 12 11 10 10 10 11 12 13 14 15 16 16 15 15 13 13 12 12 12 13 13 13 12 13 13 13 14 14 14 14 14 14 15 15 15 15 15 16 16 16 16 16 16 16 16 16 16 17 17 17 17 17 17 18 18 18 18 18 18 18 19 19 19 19 19 19 19 19
25 24 24 23 22 21 20 19 18 17 16 15 14 13 13 12 11 10 9 9 9 10 11 12 13 14 15 15 15 14 14 13 12 12 12 11 12 12 12 12 12 12 12 13 13 13 14 14 14 14 14 14 15 15 15 15 16 16 16 16 16 16 16 16 17 17 17 17 17 17 18 18 18 18 18 18 18 19 19 19 19 19 19 19 20 20
21 20 20 19 18 17 16 15 14 13 13 12 12 12 12 11 11 10 10 10 10 11 12 13 13 14 14 13 13 12 12 11 11 11 11 11 11 11 12 11 11 11 12 12 13 13 13 13 14 14 14 14 15 15 15 15 15 16 16 16 16 16 16 16 17 17 17 17 17 17 17 18 18 18 18 18 18 18 19 19 19 19 20 20 20 20
18 17 16 15 14 13 12 12 11 11 11 11 11 11 11 11 11 11 11 11 12 12 13 12 12 11 11 10 10 10 10 10 10 10 10 11 11 11 11 11 11 11 12 12 13 13 13 13 13 14 14 14 14 14 14 15 15 15 15 16 16 16 16 16 16 17 17 17 17 17 17 17 18 18 18 18 18 19 19 19 19 19 20 20 20 21
14 14 13 13 12 11 11 10 10 10 10 10 10 10 10 10 10 11 11 12 13 12 12 11 10 9 9 10 10 10 10 10 10 10 10 10 10 10 10 10 10 11 11 12 12 12 12 13 13 13 13 13 14 14 14 14 14 15 15 15 15 15 16 16 16 16 16 17 17 17 17 17 18 18 18 18 19 19 19 19 19 20 20 20 21 21
12 12 12 11 11 10 10 10 10 10 9 9 9 9 10 10 11 12 13 13 12 12 11 10 10 10 10 11 11 11 11 10 10 10 10 10 9 10 10 10 10 10 11 11 12 12 12 12 12 12 13 13 13 13 13 14 14 14 15 15 15 15 15 16 16 16 16 17 17 17 17 18 18 18 19 19 19 19 19 20 20 20 20 21 21 21
12 11 11 11 11 10 10 10 10 10 10 10 10 10 11 11 12 12 12 12 11 11 10 10 10 11 11 11 11 11 11 10 10 10 9 9 9 9 10 10 10 10 10 11 11 11 11 12 12 12 13 13 13 13 14 14 14 15 15 15 15 16 16 16 16 16 17 17 17 18 18 18 19 19 19 19 19 20 20 20 20 21 21 21 21 22
12 12 11 11 11 10 10 10 10 10 10 11 11 12 12 12 12 11 11 11 11 10 10 10 10 11 11 11 11 10 10 9 9 9 9 8 9 9 10 10 10 10 10 11 11 11 11 12 12 12 13 13 14 14 14 15 15 15 15 16 16 16 16 17 17 17 17 18 18 18 19 19 19 19 20 20 20 20 20 20 21 21 21 21 22 22
11 11 12 11 11 10 10 10 10 10 11 11 12 12 12 11 11 11 11 11 10 10 10 10 10 10 10 10 10 10 9 9 9 9 8 8 9 9 10 10 10 10 11 11 11 12 12 13 13 13 14 14 15 15 15 16 16 16 16 17 17 17 17 17 18 18 18 18 19 19 19 19 19 20 20 20 20 20 21 21 21 21 21 22 22 22
11 11 11 11 11 10 10 10 10 11 11 11 11 11 11 11 11 11 11 11 10 10 10 10 10 10 10 10 9 9 9 9 9 9 9 8 9 10 11 11 11 11 12 12 12 12 13 13 14 14 14 15 15 16 16 17 17 17 17 17 18 18 18 18 18 18 19 19 19 19 19 20 20 20 20 21 21 21 21 21 21 21 22 22 22 23
11 11 11 11 11 10 10 11 11 11 11 11 11 11 11 11 10 10 11 11 11 11 11 11 11 10 10 10 10 9 9 9 10 10 9 9 10 11 12 12 12 13 13 13 13 13 13 14 15 15 15 16 16 17 17 18 18 18 18 18 18 18 18 18 18 18 19 19 19 20 20 20 20 21 21 21 21 21 21 22 22 22 22 22 22 22
10 10 10 10 10 10 11 11 11 11 11 11 11 11 11 10 10 11 11 11 12 12 12 12 11 11 11 10 10 10 10 10 10 10 10 10 11 12 13 13 13 14 14 14 14 14 14 15 16 16 17 17 17 17 18 18 18 18 18 18 18 18 18 18 18 18 19 19 19 20 20 20 21 21 21 21 21 22 22 22 22 22 22 22 22 22
9 9 9 9 10 10 10 10 10 10 10 10 10 11 11 11 11 11 12 12 12 12 12 12 12 11 11 10 10 10 10 11 11 12 12 12 12 13 13 14 14 14 14 14 15 15 15 16 16 17 17 17 17 17 17 17 17 17 17 17 17 18 18 18 18 18 19 19 19 20 20 20 21 21 21 21 22 22 22 22 22 22 22 22 22 22
8 9 9 9 9 10 10 10 10 10 10 10 11 11 11 11 12 12 12 12 12 12 12 12 11 11 11 10 11 11 11 12 13 13 13 13 13 14 14 14 14 14 15 15 15 15 15 16 16 16 16 16 17 17 17 17 17 17 17 17 18 18 18 18 18 19 19 19 19 20 20 21 21 21 21 21 21 22 22 22 22 22 22 22 22 22
9 9 9 10 10 10 10 10 10 11 11 11 11 11 12 12 12 12 12 12 11 11 11 11 11 11 11 12 12 12 13 14 14 14 14 14 14 14 14 15 15 15 15 15 15 15 15 15 15 16 16 16 16 16 17 17 17 17 17 18 18 18 18 19 19 19 19 19 20 20 20 21 21 21 21 21 21 21 22 22 22 22 22 22 22 22
11 11 11 11 11 11 11 11 11 11 11 12 12 12 12 12 12 11 11 11 11 11 11 11 11 12 12 13 13 14 14 15 15 15 15 15 15 15 15 15 16 16 15 15 15 15 15 15 16 16 16 16 16 17 17 17 17 18 18 18 18 19 19 19 19 19 19 19 20 20 20 21 21 21 21 21 21 21 22 22 22 22 22 22 23 23
12 12 12 12 12 12 12 12 12 12 12 12 12 12 12 12 11 11 11 11 11 12 12 12 12 13 13 14 14 14 15 15 15 15 15 15 15 15 15 16 16 16 16 16 16 16 16 16 16 16 16 17 17 17 17 18 18 18 19 19 20 19 19 20 19 20 20 20 20 20 21 21 21 21 21 21 21 22 22 22 22 23 23 23 23 23
13 13 13 13 12 12 12 12 12 12 12 12 12 12 12 12 12 12 12 12 13 13 13 14 14 14 14 14 14 14 15 15 15 15 16 16 16 16 16 16 16 16 16 16 16 16 16 16 16 17 17 17 18 18 19 19 19 20 20 21 21 21 21 21 20 20 20 21 21 21 21 22 22 22 22 22 22 22 23 23 23 23 23 23 23 23
14 14 13 13 13 12 12 12 12 12 12 12 12 12 12 12 12 13 13 14 14 14 14 14 14 15 15 15 15 15 16 16 16 16 16 16 16 16 16 16 16 16 16 16 16 16 16 16 17 17 18 18 19 19 20 20 21 21 21 22 22 22 22 22 21 21 22 22 22 22 23 23 23 23 23 23 24 24 24 24 24 24 24 24 24 24
14 14 14 13 13 12 12 12 12 12 12 12 12 12 13 13 13 14 14 14 15 15 15 15 15 15 16 16 16 17 17 17 17 17 17 17 16 16 16 16 16 16 16 16 17 17 17 17 17 18 18 19 19 20 21 22 23 23 23 23 23 23 23 23 23 23 23 23 23 24 24 24 24 24 24 25 25 25 25 25 24 24 25 25 24 24
14 14 13 13 13 12 12 12 12 12 12 12 13 13 13 14 14 14 15 15 15 15 16 16 16 16 17 17 17 18 17 17 17 17 17 17 17 16 16 16 17 17 17 17 18 18 18 18 19 19 20 20 20 21 22 23 24 25 25 25 25 25 25 25 25 25 25 24 24 25 25 25 25 25 25 25 25 26 26 26 25 25 25 25 25 25
14 14 13 13 12 12 12 12 12 13 13 13 14 14 14 15 15 15 15 16 16 17 17 17 18 18 18 18 18 18 18 18 17 17 17 17 17 17 17 17 17 18 18 18 19 19 19 20 20 20 21 21 21 22 23 24 25 26 26 26 26 26 26 27 27 27 27 26 26 25 25 25 25 25 26 26 26 26 26 26 26 26 26 25 26 26
13 13 13 13 13 13 13 13 13 13 14 14 14 15 15 16 16 16 17 17 18 18 18 19 19 19 19 19 19 19 18 18 18 18 18 18 18 18 18 18 18 19 19 19 19 20 20 21 21 21 22 22 22 23 24 25 26 27 27 28 28 28 28 28 29 29 28 28 27 26 26 25 25 25 26 26 26 26 26 26 26 26 26 26 26 26
13 13 13 13 13 13 14 14 14 14 15 15 16 16 17 17 18 18 18 19 19 19 20 20 20 20 20 20 19 19 18 18 18 18 18 18 18 18 18 18 19 19 19 19 20 20 20 21 21 22 22 23 23 24 25 26 27 28 29 29 29 29 29 30 30 30 29 28 27 27 26 26 25 25 26 26 26 27 27 26 26 26 26 26 26 26
14 14 14 14 14 14 14 14 15 15 16 17 17 18 18 19 19 19 20 20 20 20 21 20 20 20 20 19 19 18 18 18 18 18 18 18 18 18 18 18 18 19 19 19 19 20 20 21 21 22 23 24 25 26 26 27 28 29 29 30 30 30 30 30 30 30 29 28 27 27 26 26 26 26 25 26 26 26 27 27 26 26 26 26 27 27
14 14 14 14 14 15 15 15 16 16 17 18 18 19 19 20 20 20 20 21 21 21 21 20 20 20 19 19 18 18 18 18 18 18 17 17 18 18 18 18 18 18 18 19 19 20 21 22 23 23 24 25 26 27 28 29 29 29 30 30 30 30 30 30 30 29 28 28 27 26 26 26 26 25 25 26 26 26 27 27 27 26 26 27 27 27
15 14 15 15 15 15 16 17 17 18 18 19 19 20 20 20 21 21 21 21 20 20 20 20 19 19 19 18 18 18 18 17 17 17 17 17 18 18 18 18 18 18 19 20 20 21 22 24 25 26 27 27 28 28 29 30 30 29 29 29 29 29 29 29 28 28 27 27 26 26 26 26 25 25 25 25 26 26 26 27 27 27 27 27 27 27
15 15 15 16 16 17 17 18 19 19 20 20 21 21 21 21 21 21 20 20 20 19 19 19 18 18 18 18 18 17 17 17 17 17 17 17 18 18 18 19 19 20 21 22 23 24 25 26 27 28 28 28 28 28 28 28 28 28 27 27 27 27 27 27 27 27 26 26 25 25 25 25 25 25 25 25 25 25 26 26 26 27 27 27 27 27
16 16 17 17 18 18 19 20 20 21 21 21 21 21 21 21 21 20 20 19 19 18 18 17 17 17 17 17 17 17 17 17 18 18 18 18 18 19 19 20 21 21 22 24 25 25 26 27 27 28 28 28 27 27 26 26 26 26 26 26 26 26 26 26 26 25 25 25 25 25 25 24 24 24 24 24 24 24 25 26 26 26 26 26 26 26
17 17 18 19 20 20 21 21 22 22 22 22 22 21 21 20 20 19 18 18 17 17 17 17 17 17 17 17 18 18 18 18 18 18 18 19 19 19 20 21 22 23 24 25 26 26 26 26 26 26 26 27 26 25 24 24 24 24 24 24 25 25 25 25 25 25 24 24 24 24 24 24 24 23 23 23 22 23 24 25 25 25 25 25 25 25
Wind_Direction
277 275 272 269 267 265 264 261 260 261 263 264 263 263 264 268 273 277 278 278 278 277 276 274 271 268 266 265 263 262 264 270 280 290 295 296 294 292 289 286 284 281 276 271 267 262 259 255 251 247 244 241 240 239 239 240 242 244 246 248 249 251 252 253 254 254 255 255 254 254 255 257 260 263 266 267 268 267 266 265 265 266 268 270 272 274
281 279 276 271 265 261 259 258 257 257 258 258 258 259 261 266 270 274 276 276 276 275 275 274 272 268 265 262 260 260 264 273 284 292 294 294 293 290 288 285 282 278 274 268 263 259 255 252 249 245 242 240 239 239 240 241 243 245 247 249 250 252 253 254 255 255 256 255 255 255 255 257 260 263 265 266 266 265 264 263 263 264 265 267 269 271
281 279 277 273 268 263 259 258 257 255 255 255 255 257 261 265 270 273 274 274 274 274 274 273 270 266 262 259 258 260 266 276 285 291 293 293 291 289 286 283 280 276 271 266 261 256 253 250 247 243 241 239 238 239 240 242 243 246 248 250 251 252 254 255 255 256 256 256 255 255 256 257 259 261 263 264 264 264 263 263 263 263 264 266 267 269
276 273 271 269 267 263 260 258 256 255 254 254 256 258 263 268 272 274 274 273 272 271 271 269 266 262 258 257 258 261 267 277 285 290 292 292 291 289 285 282 277 272 267 262 258 254 251 248 245 243 241 239 239 239 240 242 244 246 248 250 252 253 254 255 255 255 255 255 254 255 255 256 258 259 261 262 263 263 263 264 264 264 264 265 267 269
269 265 263 263 262 261 260 259 259 258 258 258 260 263 267 273 276 277 276 273 270 268 267 265 262 259 257 257 259 263 269 277 285 290 292 292 291 288 284 279 274 268 263 259 255 252 249 247 244 242 241 240 240 240 241 243 245 247 249 250 252 253 253 254 254 253 253 253 253 253 254 254 256 257 259 261 262 263 264 265 265 265 266 266 268 269
267 263 261 260 260 261 262 262 263 264 265 266 267 269 273 277 280 280 277 272 268 264 262 261 260 260 260 261 263 267 273 280 286 291 293 292 290 287 282 276 270 264 260 256 252 249 247 245 243 242 241 241 241 242 243 245 246 248 250 251 252 252 252 251 251 251 251 252 252 252 253 254 255 256 258 260 262 264 265 266 267 267 268 268 269 270
269 265 262 260 259 260 261 263 265 267 270 271 273 275 278 280 282 280 277 272 266 262 259 259 260 261 264 266 270 274 280 286 290 292 292 291 288 283 278 272 266 261 256 252 249 246 244 242 241 241 241 242 243 244 245 247 249 250 251 252 252 252 251 251 251 251 251 251 252 252 253 253 255 256 258 260 262 264 265 267 267 268 269 269 270 271
271 267 264 261 260 260 261 262 264 266 269 272 275 278 280 281 280 279 276 272 266 261 258 258 259 262 266 271 275 280 285 290 292 292 290 287 283 279 273 268 262 258 254 250 247 244 241 240 239 239 240 242 243 245 247 249 251 252 253 253 253 252 252 251 251 251 251 251 252 252 253 254 255 257 259 260 262 263 265 266 267 268 269 270 271 271
272 269 266 263 262 261 262 263 265 266 268 271 274 276 278 279 278 277 275 271 267 263 260 259 261 263 266 271 276 281 285 288 289 288 286 282 278 273 268 263 259 256 253 250 247 243 241 239 238 238 239 241 243 246 248 250 252 253 254 254 253 253 252 251 251 251 251 251 252 252 253 254 255 257 258 260 261 263 264 265 266 267 269 270 271 272
273 271 268 266 265 264 264 264 266 268 269 270 272 274 275 276 276 275 273 270 268 265 263 262 262 264 267 270 274 278 281 283 283 282 279 276 272 267 263 260 257 255 253 251 248 244 242 240 239 239 240 242 244 246 248 250 251 252 253 253 252 252 251 251 250 250 250 250 251 252 253 254 255 257 258 260 261 263 264 265 266 267 269 270 271 272
274 272 270 268 267 266 266 266 267 268 269 270 271 272 273 274 274 273 271 269 267 266 265 264 265 266 268 270 273 275 277 278 278 276 273 269 265 262 259 257 255 254 253 251 248 245 243 242 241 241 242 244 245 247 249 250 251 252 252 252 252 251 251 250 250 249 249 250 251 252 253 254 256 257 259 261 262 263 265 266 267 268 269 270 271 271
273 272 270 269 268 267 267 268 268 268 269 270 271 272 272 272 272 270 269 267 266 266 266 266 267 267 268 270 272 273 274 274 272 270 266 263 260 257 256 255 253 251 250 248 247 245 244 243 243 244 245 247 248 249 251 251 251 251 251 251 251 251 250 250 249 249 249 250 251 252 254 255 257 259 260 262 263 265 266 267 268 269 269 270 270 271
273 272 271 270 269 268 268 268 268 268 269 270 270 270 270 270 269 268 267 266 266 265 265 266 267 268 269 270 270 270 270 269 266 263 260 257 256 255 254 252 250 248 247 245 245 244 244 245 246 247 248 250 251 251 252 252 252 252 251 251 251 251 250 250 250 250 250 251 252 253 255 257 259 260 262 263 265 266 267 268 269 269 270 270 271 271
273 272 271 270 269 269 268 268 268 268 268 269 269 268 268 267 266 266 266 265 265 265 265 266 266 267 268 268 268 267 265 263 260 256 253 252 251 252 250 248 246 245 244 244 244 244 245 246 247 249 251 252 253 253 253 253 253 253 252 252 252 251 251 251 251 251 252 253 254 255 257 259 260 262 264 265 266 267 268 269 269 270 270 270 270 271
273 272 271 270 270 269 269 268 268 268 268 268 267 267 266 266 265 265 265 265 265 265 265 265 265 265 265 265 264 262 259 256 253 250 249 248 247 247 246 244 243 242 242 242 243 244 246 248 249 251 252 253 254 254 254 254 254 253 253 253 253 253 252 252 252 253 254 255 256 257 259 260 262 263 265 266 267 268 268 269 270 270 271 271 271 271
272 272 271 270 270 269 269 268 268 267 267 267 266 266 265 265 265 265 264 264 264 264 263 263 263 262 261 260 258 255 253 250 247 245 245 245 245 244 243 241 240 240 241 242 243 245 247 249 251 252 254 255 255 255 255 255 254 254 254 254 254 254 254 254 254 255 255 257 258 259 261 262 263 264 266 267 267 268 269 269 270 270 271 271 271 271
271 271 270 270 269 269 268 268 267 267 267 267 266 265 265 264 264 264 263 263 263 262 261 260 259 257 256 254 252 250 247 245 243 242 242 243 243 243 242 240 239 239 241 242 244 246 248 250 252 254 255 255 256 256 255 255 255 254 254 254 254 255 255 255 255 256 257 258 259 261 262 263 264 265 266 267 268 268 269 270 270 271 271 271 271 270
270 270 269 268 268 268 267 267 267 267 267 266 265 264 264 263 262 262 262 261 260 259 258 257 254 252 250 249 248 246 243 242 242 241 241 242 242 241 241 240 240 241 242 244 246 248 250 251 253 254 255 256 256 256 256 255 255 255 255 255 255 256 256 256 257 257 259 260 261 262 262 263 264 265 266 267 268 268 269 270 270 271 271 271 270 270
270 269 268 268 267 267 267 266 266 266 265 265 264 263 262 261 261 260 259 258 257 256 254 252 250 247 244 244 244 243 243 243 242 242 242 241 241 242 242 242 242 244 245 247 248 250 251 252 253 254 255 256 256 256 255 255 255 255 255 256 256 257 257 258 258 259 260 261 261 262 263 264 264 265 266 267 268 269 269 270 270 271 271 271 270 270
269 268 268 267 267 266 266 266 265 265 264 263 261 260 259 258 257 256 255 254 253 251 250 247 245 242 240 241 241 242 243 243 243 242 241 241 242 243 244 245 245 247 248 249 250 251 251 252 253 254 255 255 255 255 255 255 255 256 256 257 258 258 259 259 260 260 261 262 262 263 264 264 265 266 266 268 268 269 269 270 270 271 271 271 270 270
269 268 267 267 266 266 265 264 264 263 261 260 258 256 255 253 252 250 249 248 246 244 242 240 238 236 236 237 239 240 242 242 242 241 241 242 243 244 246 247 248 249 250 251 251 252 252 252 253 254 254 255 255 255 255 256 256 256 257 258 259 260 261 261 261 262 263 263 263 264 265 265 266 266 267 268 269 269 269 270 270 271 271 271 270 270
268 267 267 266 265 264 263 262 261 259 257 255 252 249 247 244 242 240 238 237 236 235 233 232 232 232 234 235 237 238 239 240 240 240 241 243 245 246 248 249 249 250 251 252 252 253 253 253 254 254 255 255 255 255 256 256 257 258 259 260 261 261 262 263 263 264 264 264 265 265 266 266 267 267 268 268 269 269 270 270 270 270 270 270 270 270
268 266 265 264 263 261 260 258 256 253 250 246 242 238 235 231 227 224 225 226 228 229 230 229 230 230 232 234 235 236 237 238 239 240 243 244 246 248 249 250 250 251 252 252 253 254 254 255 255 256 256 256 256 257 257 258 258 260 260 261 262 263 263 264 264 264 265 265 266 266 267 267 268 268 268 269 269 269 270 270 271 271 271 270 270 270
266 263 261 259 257 255 253 250 246 242 238 234 230 228 225 222 218 216 215 217 220 224 226 228 229 230 231 233 234 236 238 239 242 243 244 246 247 248 250 250 251 251 252 253 254 255 256 256 257 257 258 258 258 258 259 260 261 261 262 263 263 264 264 265 265 265 266 266 267 267 268 268 269 269 269 269 270 270 270 271 271 271 271 271 271 270
260 257 254 251 248 244 241 236 232 228 225 222 221 219 216 213 210 209 210 214 220 224 227 229 230 231 234 237 239 241 243 244 246 245 245 246 246 248 249 249 250 250 252 254 255 256 257 258 258 259 259 260 260 261 261 262 262 263 263 264 264 265 265 266 266 266 267 268 268 269 269 270 270 271 271 271 271 271 271 271 271 271 271 271 271 271
250 246 242 238 234 229 225 220 218 215 214 214 213 213 210 208 209 213 220 224 227 228 228 229 231 236 241 245 246 246 246 247 246 245 244 243 244 245 247 248 249 250 252 254 256 257 258 258 259 260 261 261 262 262 263 263 264 264 265 265 265 266 266 267 268 268 269 269 270 271 271 271 272 272 272 272 272 272 272 272 272 272 271 271 271 271
237 232 228 224 219 215 211 208 208 208 208 210 210 211 210 212 217 223 228 230 229 226 225 226 230 235 240 242 242 242 241 241 241 240 239 239 240 243 245 247 249 250 252 254 256 258 258 259 260 261 262 262 263 263 264 264 265 265 266 266 266 267 268 269 269 270 271 272 272 273 273 273 273 273 273 273 273 273 273 272 272 271 271 271 271 271
224 220 216 213 209 206 205 204 205 207 210 212 213 215 216 219 223 227 229 229 227 224 222 223 225 229 232 233 234 234 234 234 234 236 237 237 238 241 244 247 249 251 252 254 257 258 259 260 261 262 263 263 264 264 264 265 265 266 266 267 268 269 269 270 271 272 273 273 274 274 274 274 274 274 274 273 273 273 273 272 272 271 271 271 270 270
215 212 210 208 206 205 206 208 210 213 216 217 219 220 220 222 224 225 227 227 226 224 222 222 223 224 226 227 228 229 230 230 232 234 236 237 238 242 245 248 250 252 253 255 257 259 260 261 262 263 264 264 264 265 265 266 266 267 268 268 269 270 271 271 272 273 274 274 274 275 275 275 274 274 274 273 273 273 272 272 271 271 271 271 270 270
212 210 209 209 209 210 211 214 217 219 221 222 222 222 222 221 221 221 223 225 225 223 222 222 222 222 223 224 226 228 230 232 234 236 238 238 241 245 249 250 252 253 254 256 258 260 262 263 263 264 264 265 266 266 267 268 268 269 269 270 271 271 272 273 274 274 274 275 275 275 275 275 275 274 274 273 273 272 272 272 271 271 270 270 270 270
211 211 212 212 213 214 216 219 221 222 223 223 222 222 221 219 218 217 218 219 220 219 219 219 220 221 222 224 226 229 232 235 238 241 242 242 245 248 251 253 255 256 257 257 258 260 262 263 264 265 266 266 267 268 269 269 270 270 271 272 272 273 274 274 275 275 276 276 276 276 275 275 275 275 274 274 273 273 272 271 271 270 270 270 270 270
210 210 211 213 215 217 219 221 222 223 223 223 222 220 219 217 214 212 212 214 215 215 215 217 218 221 224 226 227 231 234 238 242 245 247 246 249 252 254 256 257 258 259 259 260 261 262 264 265 266 267 267 268 269 270 270 271 272 273 274 274 275 276 276 276 276 277 277 277 277 277 276 276 276 275 274 274 273 272 271 271 270 269 269 269 269
207 208 209 212 215 218 220 220 221 221 221 220 219 218 216 213 211 209 208 209 211 212 213 215 217 221 224 228 231 235 239 242 246 249 251 251 252 254 256 257 258 259 261 262 262 263 264 265 266 267 267 268 269 269 271 272 273 274 275 276 277 277 278 278 278 278 278 279 279 278 278 278 277 277 276 275 275 274 273 272 271 270 269 269 269 269
204 206 210 213 216 218 219 219 218 218 218 217 216 214 213 211 209 207 207 208 209 211 213 215 218 222 226 231 236 241 245 248 250 253 253 253 254 255 257 258 259 261 263 265 266 266 266 266 266 267 268 269 270 271 272 274 275 277 278 278 279 279 279 280 280 280 280 280 280 280 279 279 278 278 277 277 276 275 274 273 272 272 270 269 269 269
208 211 214 217 218 220 220 219 218 218 216 215 214 212 211 210 209 209 209 210 211 214 216 219 222 225 230 234 239 244 249 251 253 254 255 255 255 256 258 260 261 263 265 266 268 268 269 268 268 269 270 272 273 274 275 277 278 280 281 281 281 281 282 282 282 283 282 282 282 281 280 279 279 279 278 278 277 277 276 275 274 273 272 271 270 269
217 220 222 223 223 222 222 221 219 218 216 214 213 212 211 211 210 211 212 214 217 220 222 226 229 232 235 238 242 245 249 252 253 255 256 256 257 258 260 262 264 266 267 268 270 271 271 271 271 272 272 274 276 277 278 279 280 282 283 283 283 283 283 283 284 284 284 283 283 282 281 281 280 280 279 279 278 278 277 277 276 275 273 272 271 270
224 226 226 226 225 224 222 221 219 217 215 213 213 212 212 212 214 216 218 221 224 228 231 234 236 238 240 242 244 246 248 251 253 255 257 258 259 261 262 264 266 268 269 271 272 273 273 273 273 274 274 275 276 278 279 280 281 282 282 282 282 283 283 284 284 284 284 284 283 282 282 282 282 281 281 280 280 279 278 278 277 275 274 273 272 271
227 227 226 225 223 222 221 219 218 216 215 214 214 214 215 216 218 221 224 228 231 235 237 240 241 242 243 245 246 248 250 252 255 257 259 261 262 263 265 266 268 270 272 272 273 273 273 273 274 274 275 276 277 277 279 280 281 281 281 281 281 282 282 283 283 284 284 284 283 283 283 283 283 283 282 282 281 280 279 278 277 276 274 273 271 270
227 225 223 222 220 219 218 217 217 216 216 216 216 217 219 221 224 227 230 234 236 239 241 243 244 246 247 248 250 252 254 257 258 260 262 263 265 266 267 268 270 271 272 272 273 273 273 273 273 274 275 277 278 278 279 280 280 280 280 281 281 281 281 282 283 283 283 283 283 283 283 284 284 283 283 282 282 281 279 278 277 276 274 273 271 270
223 221 219 218 217 216 216 216 218 218 219 220 222 224 226 229 232 234 237 239 241 243 245 246 248 250 251 254 256 257 259 261 262 263 264 264 265 266 267 268 269 271 272 272 272 272 272 272 273 274 276 277 279 280 281 281 281 281 281 281 281 282 282 282 282 283 283 283 283 283 283 283 283 283 282 282 281 279 278 277 276 275 274 272 270 269
218 216 214 214 214 215 216 218 220 222 224 227 230 233 235 237 240 241 243 245 246 248 250 252 253 254 256 258 259 261 262 263 264 264 264 264 265 266 267 268 269 270 271 271 271 272 272 272 273 274 276 277 279 281 282 282 283 283 283 283 283 283 283 283 283 283 283 283 283 283 283 282 282 282 281 280 279 277 276 275 274 273 272 271 269 268
213 212 212 213 214 216 219 222 225 229 232 235 238 240 242 244 245 247 249 251 252 254 255 256 257 259 260 261 262 263 264 264 264 263 263 263 264 265 267 268 269 270 271 272 273 273 274 274 275 276 277 278 279 281 282 283 283 284 284 285 285 286 286 286 285 285 284 283 283 283 283 282 281 280 279 278 277 275 274 273 272 271 270 270 269 268
213 214 216 218 220 223 226 230 232 235 238 240 242 245 247 249 250 252 254 255 256 257 258 260 261 262 264 264 265 265 264 263 262 261 261 262 263 265 267 269 270 272 273 274 275 276 277 277 277 278 278 279 280 281 281 282 283 284 285 286 286 287 287 287 287 287 286 285 285 284 283 282 281 279 278 277 275 274 273 272 271 270 269 268 268 267
219 222 226 228 231 233 235 237 238 240 242 243 246 248 250 251 253 254 255 256 257 258 259 261 262 264 265 266 266 265 263 261 260 260 260 261 263 266 268 271 273 274 276 276 277 278 278 279 279 280 280 280 281 281 282 282 283 284 285 286 287 287 287 287 287 287 287 286 286 285 284 282 280 279 277 276 274 273 272 271 270 270 269 268 267 267
232 235 237 238 239 240 240 241 242 243 245 247 248 250 252 253 253 254 255 256 257 258 259 261 262 263 264 264 264 263 261 260 259 259 260 263 266 268 271 273 275 276 277 278 278 279 279 280 280 281 282 282 282 282 282 283 283 284 286 287 287 287 287 287 287 287 287 286 286 285 284 282 280 278 277 275 274 273 272 271 270 269 268 268 267 266
242 243 244 244 243 243 243 244 245 247 248 250 251 253 253 254 254 255 255 256 257 258 259 261 261 262 262 261 261 260 260 259 260 261 263 266 268 271 273 274 275 276 277 278 279 280 280 280 281 282 283 283 283 283 283 283 284 284 285 286 287 287 287 287 287 287 287 287 287 285 284 282 280 278 276 275 274 273 272 271 270 269 268 268 267 267
246 246 246 245 245 245 246 247 249 250 252 254 255 256 256 257 257 257 258 259 259 260 260 260 260 259 259 259 258 258 258 259 260 263 266 268 271 272 274 275 275 276 278 279 280 280 281 282 283 283 283 283 283 284 284 284 284 284 285 285 286 286 286 286 287 287 288 288 287 286 284 282 280 278 276 275 273 272 272 270 269 268 267 267 267 266
246 246 246 245 246 247 248 250 252 254 256 257 258 259 260 260 260 260 260 260 260 259 259 258 257 257 256 256 256 257 258 260 262 266 269 272 273 274 276 276 277 278 279 279 280 281 282 283 284 284 284 284 283 283 283 284 284 284 285 285 285 286 286 286 287 288 288 288 287 286 284 283 281 279 277 275 273 272 271 270 269 268 267 267 266 266
244 245 245 246 248 250 252 254 256 258 259 260 261 261 262 262 262 261 260 259 258 256 255 254 254 254 255 255 256 258 260 263 266 270 273 275 276 276 277 278 278 279 280 281 281 282 283 284 285 285 284 283 283 282 282 283 283 284 284 285 285 286 286 287 288 288 288 288 287 286 285 283 281 279 277 276 274 273 272 271 270 269 268 267 266 266
242 244 246 249 251 254 256 258 260 261 262 262 263 263 263 262 260 259 257 254 252 251 250 250 250 252 253 255 257 260 264 267 271 274 275 276 276 276 277 277 278 280 281 282 284 285 285 286 286 285 284 283 282 281 281 281 282 283 284 284 285 285 286 287 288 288 288 287 287 286 285 284 282 281 279 277 276 274 273 272 271 270 269 268 267 266
242 245 249 252 255 258 260 262 263 263 264 264 263 263 261 259 257 254 251 248 246 245 245 247 249 251 254 257 260 264 268 271 273 275 276 275 275 275 276 277 279 281 283 284 286 286 287 287 286 285 283 282 281 280 280 280 280 281 282 283 284 285 285 286 287 287 287 287 286 286 285 284 283 282 281 280 278 276 275 274 273 272 270 269 267 266
Height
3083 3083 3083 3083 3084 3084 3084 3084 3084 3084 3083 3084 3084 3083 3083 3083 3083 3083 3082 3082 3082 3082 3082 3082 3082 3082 3082 3082 3081 3081 3081 3081 3081 3081 3081 3081 3080 3080 3079 3079 3078 3078 3078 3078 3078 3077 3078 3078 3078 3078 3079 3079 3080 3080 3080 3080 3081 3081 3082 3082 3082 3082 3083 3083 3083 3083 3083 3083 3083 3083 3083 3083 3083 3083 3084 3084 3085 3085 3085 3085 3085 3085 3085 3085 3085 3085
3080 3080 3080 3080 3081 3081 3081 3081 3081 3081 3081 3081 3081 3081 3080 3080 3080 3080 3080 3080 3080 3080 3080 3080 3080 3080 3080 3080 3080 3079 3079 3079 3079 3079 3079 3079 3079 3078 3077 3077 3077 3076 3076 3076 3076 3076 3076 3076 3076 3077 3077 3078 3078 3079 3079 3080 3080 3080 3080 3081 3081 3081 3081 3081 3082 3082 3082 3082 3082 3082 3082 3082 3082 3082 3083 3083 3084 3084 3084 3084 3085 3084 3084 3084 3084 3084
3077 3077 3077 3078 3078 3079 3079 3079 3079 3079 3079 3078 3078 3078 3078 3078 3078 3078 3078 3078 3078 3078 3078 3078 3078 3078 3078 3077 3077 3077 3077 3077 3077 3077 3077 3077 3076 3076 3075 3075 3075 3075 3075 3075 3074 3074 3075 3075 3075 3075 3076 3076 3077 3077 3078 3078 3079 3079 3079 3079 3080 3080 3080 3080 3080 3080 3080 3080 3081 3081 3081 3081 3081 3081 3082 3082 3082 3083 3083 3083 3083 3083 3083 3083 3083 3083
3075 3075 3075 3075 3076 3076 3076 3076 3076 3076 3076 3076 3075 3075 3076 3076 3076 3076 3075 3075 3076 3076 3076 3076 3076 3076 3075 3075 3075 3075 3075 3075 3075 3075 3075 3075 3074 3074 3074 3074 3073 3073 3073 3073 3073 3073 3073 3073 3074 3074 3075 3075 3075 3076 3076 3077 3077 3078 3078 3078 3078 3079 3079 3079 3079 3079 3079 3079 3080 3080 3080 3080 3080 3080 3081 3081 3081 3081 3082 3082 3082 3082 3082 3082 3082 3082
3073 3073 3073 3073 3074 3074 3074 3074 3074 3074 3074 3074 3074 3074 3074 3074 3073 3073 3073 3073 3074 3074 3074 3074 3074 3074 3073 3073 3073 3073 3073 3073 3073 3073 3073 3072 3072 3072 3072 3072 3072 3071 3071 3071 3071 3071 3072 3072 3072 3073 3073 3074 3074 3075 3075 3075 3076 3076 3077 3077 3077 3077 3078 3078 3078 3078 3078 3078 3078 3078 3079 3079 3079 3079 3080 3080 3080 3080 3080 3080 3081 3081 3081 3081 3081 3081
3070 3070 3070 3071 3071 3071 3072 3071 3071 3071 3071 3071 3071 3071 3071 3071 3071 3071 3071 3071 3071 3072 3072 3072 3072 3071 3071 3071 3071 3071 3071 3071 3071 3070 3070 3070 3070 3070 3070 3070 3070 3070 3070 3070 3070 3070 3070 3071 3071 3071 3072 3072 3073 3073 3074 3074 3075 3075 3075 3076 3076 3076 3076 3076 3076 3077 3077 3077 3077 3077 3078 3078 3078 3078 3078 3079 3079 3079 3079 3079 3079 3080 3080 3080 3080 3080
3068 3068 3068 3068 3068 3069 3069 3069 3069 3069 3069 3069 3069 3069 3069 3069 3068 3069 3069 3069 3069 3070 3070 3070 3070 3069 3069 3069 3069 3069 3069 3069 3068 3068 3068 3068 3068 3068 3068 3068 3068 3068 3068 3069 3069 3069 3069 3070 3070 3070 3071 3071 3072 3072 3073 3073 3073 3074 3074 3074 3075 3075 3075 3075 3075 3075 3075 3075 3076 3076 3076 3076 3077 3077 3077 3077 3077 3078 3078 3078 3078 3078 3078 3078 3078 3078
3065 3065 3065 3065 3065 3065 3066 3066 3066 3066 3066 3066 3066 3066 3066 3066 3066 3066 3066 3066 3067 3067 3067 3067 3067 3067 3067 3066 3066 3066 3066 3066 3066 3066 3066 3066 3066 3066 3066 3066 3066 3067 3067 3067 3067 3068 3068 3068 3069 3069 3070 3070 3070 3071 3071 3072 3072 3072 3073 3073 3073 3073 3074 3074 3074 3074 3074 3074 3075 3075 3075 3075 3075 3076 3076 3076 3076 3076 3076 3077 3077 3077 3077 3077 3077 3077
3063 3063 3063 3063 3063 3063 3063 3063 3063 3064 3064 3063 3063 3063 3063 3064 3064 3064 3064 3064 3064 3065 3065 3065 3065 3065 3065 3064 3064 3064 3064 3064 3064 3064 3064 3064 3064 3064 3065 3065 3065 3065 3065 3065 3066 3066 3067 3067 3067 3068 3068 3069 3069 3070 3070 3070 3071 3071 3071 3071 3072 3072 3072 3072 3072 3073 3073 3073 3073 3074 3074 3074 3074 3074 3075 3075 3075 3075 3075 3075 3075 3075 3076 3076 3076 3076
3060 3060 3060 3060 3060 3060 3060 3060 3060 3061 3061 3060 3060 3060 3061 3061 3061 3061 3061 3062 3062 3062 3062 3062 3062 3062 3062 3062 3062 3062 3062 3062 3062 3062 3062 3062 3062 3063 3063 3063 3063 3063 3064 3064 3065 3065 3065 3066 3066 3067 3067 3067 3068 3068 3069 3069 3069 3070 3070 3070 3070 3070 3071 3071 3071 3071 3072 3072 3072 3072 3072 3073 3073 3073 3073 3074 3074 3074 3074 3074 3074 3074 3074 3074 3074 3074
3058 3058 3058 3057 3058 3058 3058 3058 3058 3058 3058 3058 3058 3058 3058 3059 3059 3059 3059 3059 3059 3059 3059 3059 3060 3060 3060 3060 3060 3060 3060 3060 3060 3060 3060 3060 3060 3061 3061 3061 3062 3062 3063 3063 3064 3064 3064 3065 3065 3065 3066 3066 3066 3067 3067 3068 3068 3068 3068 3069 3069 3069 3069 3070 3070 3070 3070 3070 3071 3071 3071 3071 3071 3072 3072 3072 3072 3072 3073 3073 3073 3073 3073 3073 3073 3073
3055 3055 3055 3055 3055 3055 3055 3055 3055 3055 3055 3055 3055 3055 3056 3056 3056 3056 3056 3056 3057 3057 3057 3057 3057 3057 3058 3058 3058 3058 3058 3058 3058 3058 3058 3059 3059 3059 3060 3060 3060 3061 3062 3062 3062 3063 3063 3063 3064 3064 3064 3065 3065 3065 3066 3066 3066 3067 3067 3067 3067 3068 3068 3068 3069 3069 3069 3069 3069 3070 3070 3070 3070 3070 3070 3071 3071 3071 3071 3071 3071 3071 3072 3072 3072 3072
3052 3052 3052 3052 3052 3052 3052 3052 3052 3052 3053 3053 3053 3053 3054 3054 3053 3053 3053 3054 3054 3054 3054 3054 3055 3055 3055 3055 3056 3056 3056 3056 3056 3056 3056 3057 3057 3058 3058 3059 3060 3060 3060 3061 3061 3061 3061 3062 3062 3062 3063 3063 3064 3064 3065 3065 3065 3065 3065 3066 3066 3066 3066 3067 3067 3067 3068 3068 3068 3068 3068 3069 3069 3069 3069 3069 3070 3070 3070 3070 3070 3070 3070 3070 3070 3070
3050 3050 3050 3050 3050 3050 3050 3050 3050 3050 3050 3050 3050 3051 3051 3051 3051 3051 3051 3051 3051 3052 3052 3052 3052 3052 3053 3053 3053 3054 3054 3054 3054 3055 3055 3055 3055 3056 3057 3057 3058 3059 3059 3059 3060 3060 3060 3060 3061 3061 3061 3062 3062 3063 3063 3063 3064 3064 3064 3064 3065 3065 3065 3065 3066 3066 3066 3066 3066 3067 3067 3067 3067 3067 3068 3068 3068 3068 3068 3068 3069 3069 3069 3069 3069 3069
3047 3047 3046 3046 3047 3047 3047 3047 3047 3047 3047 3048 3048 3048 3048 3048 3048 3048 3048 3049 3049 3049 3049 3050 3050 3050 3050 3051 3051 3051 3052 3052 3053 3053 3053 3054 3054 3055 3055 3056 3056 3057 3057 3058 3058 3058 3059 3059 3059 3060 3060 3060 3061 3061 3061 3062 3062 3062 3062 3063 3063 3063 3064 3064 3064 3065 3065 3065 3065 3065 3065 3066 3066 3066 3066 3066 3066 3067 3067 3067 3067 3067 3067 3067 3067 3068
3044 3044 3044 3044 3044 3044 3044 3044 3044 3044 3045 3045 3045 3045 3045 3045 3045 3046 3046 3046 3046 3046 3047 3047 3047 3048 3048 3049 3049 3050 3050 3050 3051 3051 3052 3053 3053 3053 3054 3055 3055 3055 3056 3056 3057 3057 3057 3058 3058 3058 3059 3059 3059 3060 3060 3060 3060 3061 3061 3061 3062 3062 3062 3063 3063 3063 3063 3063 3064 3064 3064 3064 3065 3065 3065 3065 3065 3065 3065 3065 3065 3065 3066 3066 3066 3066
3041 3041 3041 3041 3041 3041 3041 3041 3041 3041 3042 3042 3042 3043 3043 3043 3043 3043 3043 3044 3044 3044 3045 3045 3045 3045 3046 3046 3047 3048 3048 3049 3050 3050 3050 3051 3052 3052 3052 3053 3054 3054 3055 3055 3055 3056 3056 3056 3056 3057 3057 3058 3058 3058 3059 3059 3059 3060 3060 3060 3060 3060 3061 3061 3061 3062 3062 3062 3062 3062 3063 3063 3063 3063 3063 3063 3064 3064 3064 3064 3064 3064 3064 3064 3064 3065
3038 3038 3038 3038 3038 3038 3038 3038 3039 3039 3039 3040 3040 3040 3040 3040 3040 3041 3041 3041 3041 3042 3042 3043 3043 3043 3044 3044 3045 3046 3047 3047 3048 3049 3049 3050 3050 3050 3051 3052 3052 3053 3053 3054 3054 3054 3055 3055 3055 3055 3056 3056 3057 3057 3057 3058 3058 3058 3058 3059 3059 3059 3060 3060 3060 3060 3060 3060 3061 3061 3061 3061 3061 3062 3062 3062 3062 3062 3062 3062 3062 3062 3063 3063 3063 3063
3035 3035 3035 3035 3035 3035 3035 3035 3036 3036 3037 3037 3037 3037 3038 3038 3038 3039 3039 3039 3039 3040 3040 3040 3041 3041 3042 3042 3043 3044 3045 3046 3047 3047 3048 3048 3049 3049 3050 3050 3051 3051 3052 3052 3053 3053 3053 3054 3054 3054 3055 3055 3055 3056 3056 3056 3056 3057 3057 3057 3057 3058 3058 3058 3059 3059 3059 3059 3059 3060 3060 3060 3060 3060 3060 3060 3060 3060 3060 3060 3061 3061 3061 3061 3061 3061
3032 3032 3032 3032 3032 3033 3033 3033 3034 3034 3034 3035 3035 3035 3035 3036 3036 3036 3037 3037 3037 3038 3038 3039 3040 3040 3041 3041 3042 3043 3044 3045 3045 3046 3046 3047 3047 3048 3049 3049 3050 3050 3050 3051 3051 3051 3052 3052 3053 3053 3053 3054 3054 3055 3055 3055 3055 3055 3055 3056 3056 3056 3057 3057 3057 3057 3057 3058 3058 3058 3058 3058 3058 3059 3059 3059 3059 3059 3059 3059 3059 3059 3059 3059 3059 3059
3030 3030 3030 3030 3030 3030 3030 3031 3031 3031 3032 3032 3033 3033 3033 3034 3034 3035 3035 3035 3036 3036 3037 3038 3039 3039 3040 3041 3042 3043 3043 3044 3044 3045 3045 3046 3046 3047 3047 3048 3048 3049 3049 3050 3050 3050 3050 3051 3051 3052 3052 3052 3053 3053 3053 3054 3054 3054 3054 3054 3055 3055 3055 3055 3055 3056 3056 3056 3056 3056 3056 3056 3057 3057 3057 3057 3057 3057 3057 3057 3057 3057 3057 3057 3057 3058
3027 3027 3027 3027 3028 3028 3028 3029 3029 3030 3030 3030 3030 3031 3031 3032 3033 3033 3033 3034 3035 3035 3036 3037 3038 3039 3039 3040 3041 3041 3042 3043 3043 3044 3044 3045 3045 3046 3046 3047 3047 3048 3048 3048 3049 3049 3049 3050 3050 3050 3051 3051 3051 3052 3052 3052 3052 3053 3053 3053 3053 3053 3054 3054 3054 3054 3054 3054 3055 3055 3055 3055 3055 3055 3055 3055 3055 3055 3055 3055 3055 3055 3055 3055 3056 3056
3025 3025 3025 3025 3025 3026 3026 3027 3027 3027 3028 3029 3029 3030 3030 3030 3031 3032 3032 3033 3034 3035 3035 3036 3037 3038 3038 3039 3040 3040 3041 3041 3042 3043 3043 3044 3044 3045 3045 3045 3046 3046 3046 3047 3047 3048 3048 3048 3049 3049 3050 3050 3050 3050 3050 3051 3051 3051 3051 3051 3052 3052 3052 3052 3052 3052 3053 3053 3053 3053 3053 3053 3053 3053 3053 3054 3054 3054 3054 3054 3054 3054 3054 3054 3054 3054
3022 3023 3023 3023 3024 3024 3025 3025 3025 3026 3026 3027 3028 3028 3029 3030 3030 3031 3032 3032 3033 3034 3035 3035 3036 3036 3037 3038 3039 3039 3040 3040 3041 3042 3042 3043 3043 3044 3044 3045 3045 3045 3045 3046 3046 3046 3047 3047 3047 3048 3048 3048 3049 3049 3049 3049 3050 3050 3050 3050 3050 3050 3050 3051 3051 3051 3051 3051 3051 3051 3051 3051 3051 3051 3052 3052 3052 3052 3052 3052 3052 3052 3052 3052 3052 3052
3020 3021 3021 3021 3022 3022 3023 3024 3024 3025 3025 3026 3026 3027 3028 3029 3029 3030 3031 3032 3032 3033 3034 3034 3035 3035 3036 3037 3038 3038 3039 3040 3040 3041 3041 3042 3042 3043 3043 3043 3044 3044 3044 3045 3045 3045 3045 3046 3046 3046 3047 3047 3047 3047 3048 3048 3048 3048 3048 3049 3049 3049 3049 3049 3049 3049 3050 3050 3050 3050 3050 3050 3050 3050 3050 3050 3050 3050 3050 3050 3050 3050 3050 3050 3050 3050
3019 3019 3020 3020 3020 3021 3022 3022 3023 3024 3024 3025 3026 3026 3027 3028 3029 3030 3030 3031 3032 3032 3033 3033 3034 3035 3035 3036 3037 3037 3038 3039 3039 3040 3040 3041 3041 3041 3042 3042 3043 3043 3043 3043 3044 3044 3044 3045 3045 3045 3045 3045 3046 3046 3046 3046 3047 3047 3047 3047 3047 3047 3048 3048 3048 3048 3048 3048 3048 3048 3048 3048 3048 3048 3048 3048 3048 3048 3048 3048 3048 3048 3048 3048 3048 3048
3017 3018 3018 3019 3019 3020 3021 3021 3022 3023 3024 3024 3025 3026 3026 3027 3028 3029 3029 3030 3030 3031 3032 3032 3033 3034 3035 3035 3036 3037 3037 3038 3038 3039 3039 3040 3040 3040 3040 3041 3041 3042 3042 3042 3043 3043 3043 3044 3044 3044 3044 3044 3045 3045 3045 3045 3045 3045 3045 3046 3046 3046 3046 3046 3046 3046 3046 3046 3046 3046 3046 3046 3046 3046 3046 3046 3046 3046 3046 3046 3046 3046 3046 3046 3046 3046
3016 3016 3017 3018 3018 3019 3020 3020 3021 3022 3023 3024 3024 3025 3026 3026 3027 3028 3029 3029 3030 3030 3031 3031 3032 3033 3034 3034 3035 3035 3036 3037 3037 3038 3038 3038 3039 3039 3040 3040 3040 3040 3041 3041 3041 3042 3042 3042 3042 3043 3043 3043 3043 3043 3044 3044 3044 3044 3044 3044 3044 3044 3044 3044 3045 3045 3045 3045 3044 3044 3044 3044 3044 3044 3044 3044 3044 3045 3045 3045 3045 3045 3044 3044 3044 3044
3015 3015 3016 3017 3018 3018 3019 3020 3020 3021 3022 3023 3023 3024 3025 3025 3026 3027 3028 3028 3029 3030 3030 3031 3031 3032 3033 3033 3034 3034 3035 3035 3036 3036 3037 3037 3038 3038 3038 3039 3039 3039 3040 3040 3040 3040 3040 3041 3041 3041 3041 3041 3042 3042 3042 3042 3042 3042 3042 3042 3043 3043 3043 3043 3043 3043 3042 3042 3042 3042 3042 3042 3042 3042 3042 3042 3042 3042 3042 3043 3042 3042 3042 3042 3042 3042
3014 3015 3015 3016 3017 3017 3018 3019 3020 3020 3021 3022 3023 3023 3024 3025 3025 3026 3027 3028 3028 3029 3030 3030 3030 3031 3032 3032 3033 3033 3034 3034 3035 3035 3035 3036 3036 3037 3037 3037 3038 3038 3038 3039 3039 3039 3039 3040 3040 3040 3040 3040 3040 3040 3040 3040 3040 3041 3041 3041 3041 3041 3041 3041 3041 3040 3040 3040 3040 3040 3040 3040 3040 3040 3040 3040 3040 3040 3040 3040 3040 3040 3040 3040 3040 3040
3013 3014 3015 3015 3016 3017 3017 3018 3019 3020 3020 3021 3022 3022 3023 3024 3024 3025 3026 3027 3027 3028 3029 3029 3030 3030 3031 3031 3032 3032 3033 3033 3033 3034 3034 3035 3035 3035 3036 3036 3036 3037 3037 3037 3038 3038 3038 3038 3038 3038 3038 3039 3039 3039 3039 3039 3039 3039 3039 3039 3039 3039 3039 3039 3039 3039 3039 3039 3039 3038 3038 3038 3038 3038 3038 3038 3038 3038 3038 3038 3038 3038 3038 3038 3038 3038
3012 3013 3014 3015 3015 3016 3017 3017 3018 3019 3019 3020 3021 3021 3022 3023 3023 3024 3025 3025 3026 3027 3027 3028 3029 3029 3030 3030 3031 3031 3031 3032 3032 3033 3033 3034 3034 3034 3035 3035 3035 3035 3036 3036 3036 3036 3037 3037 3037 3037 3037 3037 3037 3037 3037 3037 3037 3037 3037 3037 3037 3037 3037 3037 3037 3037 3037 3036 3036 3036 3036 3036 3036 3036 3036 3036 3036 3036 3036 3036 3036 3036 3036 3036 3036 3036
3012 3012 3013 3014 3015 3015 3016 3016 3017 3018 3018 3019 3020 3020 3021 3021 3022 3023 3023 3024 3025 3026 3026 3027 3027 3028 3028 3029 3030 3030 3030 3030 3031 3031 3032 3032 3033 3033 3033 3034 3034 3034 3034 3035 3035 3035 3035 3035 3035 3035 3035 3035 3035 3035 3035 3035 3035 3035 3035 3035 3035 3035 3035 3035 3035 3035 3035 3035 3035 3035 3034 3034 3034 3034 3034 3034 3034 3034 3034 3034 3034 3034 3034 3034 3034 3034
3011 3012 3012 3013 3014 3015 3015 3015 3016 3017 3017 3018 3019 3019 3020 3020 3021 3021 3022 3023 3024 3024 3025 3025 3026 3027 3027 3028 3028 3029 3029 3029 3030 3030 3030 3031 3031 3031 3032 3032 3032 3032 3032 3033 3033 3033 3033 3033 3033 3033 3033 3033 3034 3034 3033 3033 3033 3033 3033 3033 3033 3033 3033 3033 3033 3033 3033 3033 3032 3032 3032 3032 3032 3032 3032 3032 3032 3032 3032 3032 3032 3032 3032 3032 3031 3031
3010 3011 3012 3012 3013 3014 3014 3015 3015 3016 3016 3017 3017 3018 3019 3019 3020 3020 3021 3022 3022 3023 3024 3024 3025 3025 3026 3026 3027 3027 3027 3028 3028 3029 3029 3030 3030 3030 3030 3030 3030 3030 3031 3031 3031 3031 3031 3031 3031 3031 3031 3031 3031 3031 3031 3031 3031 3031 3031 3031 3031 3031 3031 3031 3031 3031 3030 3030 3030 3030 3030 3030 3030 3030 3030 3030 3030 3029 3029 3029 3029 3029 3029 3029 3029 3029
3009 3010 3010 3011 3012 3012 3013 3014 3014 3015 3015 3016 3016 3017 3017 3018 3019 3019 3020 3020 3021 3022 3022 3023 3024 3024 3025 3025 3025 3026 3026 3026 3027 3027 3027 3028 3028 3028 3028 3028 3029 3029 3029 3029 3029 3030 3030 3030 3030 3030 3030 3030 3030 3030 3029 3030 3029 3029 3029 3029 3029 3029 3029 3029 3029 3029 3029 3029 3028 3028 3028 3028 3028 3027 3027 3027 3027 3027 3027 3027 3027 3027 3027 3027 3027 3027
3008 3009 3010 3010 3011 3011 3012 3012 3013 3013 3014 3015 3015 3016 3016 3017 3018 3018 3019 3019 3020 3020 3021 3022 3022 3023 3023 3024 3024 3025 3025 3025 3025 3025 3026 3026 3026 3026 3027 3027 3027 3027 3027 3027 3028 3028 3028 3028 3028 3028 3028 3028 3028 3028 3027 3027 3027 3027 3027 3027 3027 3027 3027 3027 3027 3027 3027 3026 3026 3026 3026 3025 3025 3025 3025 3025 3025 3025 3025 3025 3024 3024 3024 3025 3025 3025
3007 3008 3008 3009 3010 3010 3010 3011 3012 3012 3013 3014 3014 3015 3015 3016 3016 3017 3018 3018 3019 3019 3020 3020 3021 3021 3022 3022 3023 3023 3023 3024 3024 3024 3024 3024 3025 3025 3025 3025 3025 3026 3026 3026 3026 3026 3026 3026 3026 3026 3026 3026 3026 3026 3025 3025 3025 3025 3025 3025 3025 3025 3025 3025 3025 3025 3025 3025 3024 3024 3024 3024 3023 3023 3023 3023 3022 3022 3022 3022 3022 3022 3022 3022 3022 3022
3006 3006 3007 3008 3008 3009 3009 3010 3010 3011 3012 3013 3013 3014 3014 3015 3015 3016 3016 3017 3017 3018 3018 3019 3020 3020 3020 3021 3021 3021 3022 3022 3022 3022 3022 3023 3023 3023 3024 3024 3024 3024 3024 3024 3024 3024 3024 3024 3024 3024 3024 3024 3024 3024 3023 3023 3023 3023 3023 3023 3023 3023 3023 3023 3023 3023 3022 3022 3022 3022 3021 3021 3021 3021 3020 3020 3020 3020 3020 3020 3020 3019 3020 3020 3020 3020
3005 3005 3006 3006 3007 3008 3008 3009 3010 3010 3011 3011 3012 3013 3013 3014 3014 3015 3015 3015 3016 3016 3017 3017 3018 3019 3019 3019 3020 3020 3020 3020 3020 3021 3021 3021 3021 3021 3022 3022 3022 3022 3022 3022 3022 3022 3022 3022 3022 3022 3022 3022 3021 3021 3021 3021 3020 3020 3020 3020 3020 3020 3020 3020 3020 3020 3020 3020 3020 3020 3019 3019 3019 3018 3018 3018 3018 3017 3017 3017 3017 3017 3017 3017 3017 3017
3003 3004 3005 3005 3006 3006 3007 3008 3008 3009 3010 3010 3011 3011 3012 3013 3013 3013 3014 3014 3015 3015 3015 3016 3016 3017 3017 3018 3018 3018 3018 3019 3019 3019 3019 3019 3019 3020 3020 3020 3020 3020 3020 3020 3020 3020 3020 3020 3020 3020 3020 3020 3020 3019 3019 3018 3018 3018 3018 3018 3018 3018 3018 3018 3018 3018 3018 3018 3017 3017 3017 3016 3016 3016 3015 3015 3015 3015 3015 3014 3014 3014 3014 3014 3014 3015
3002 3003 3003 3004 3005 3005 3006 3007 3007 3008 3009 3009 3010 3010 3011 3011 3012 3012 3013 3013 3013 3014 3014 3014 3015 3015 3015 3016 3016 3016 3017 3017 3017 3017 3017 3017 3017 3018 3018 3018 3018 3018 3018 3018 3018 3018 3018 3018 3018 3018 3018 3018 3017 3017 3016 3016 3015 3015 3015 3015 3015 3015 3015 3015 3015 3015 3015 3015 3015 3015 3015 3014 3014 3013 3013 3012 3012 3012 3012 3011 3011 3011 3011 3011 3011 3012
3001 3002 3002 3003 3004 3005 3005 3005 3006 3007 3007 3008 3009 3009 3010 3010 3010 3011 3011 3011 3011 3012 3012 3012 3013 3013 3013 3014 3014 3015 3015 3015 3015 3015 3015 3015 3016 3016 3016 3016 3016 3016 3016 3016 3016 3016 3016 3016 3016 3016 3016 3016 3015 3015 3015 3014 3013 3012 3012 3012 3012 3012 3012 3012 3012 3012 3012 3012 3012 3012 3012 3011 3011 3010 3010 3010 3009 3009 3009 3009 3009 3009 3009 3009 3009 3009
3000 3001 3001 3002 3003 3003 3004 3005 3005 3006 3006 3007 3007 3008 3008 3008 3009 3009 3009 3010 3010 3010 3010 3010 3011 3011 3011 3012 3012 3013 3013 3013 3014 3014 3014 3014 3014 3014 3014 3014 3014 3014 3014 3015 3015 3014 3014 3014 3014 3014 3014 3014 3014 3013 3012 3012 3011 3010 3010 3010 3010 3010 3010 3009 3009 3009 3009 3009 3009 3009 3009 3009 3008 3008 3007 3007 3006 3006 3006 3006 3006 3006 3006 3006 3006 3006
2999 3000 3000 3001 3001 3002 3002 3003 3004 3004 3005 3005 3005 3006 3006 3007 3007 3007 3007 3008 3008 3008 3008 3009 3009 3009 3010 3010 3010 3011 3011 3011 3012 3012 3012 3012 3012 3013 3013 3013 3013 3012 3012 3012 3012 3012 3012 3012 3012 3012 3012 3011 3011 3011 3010 3010 3009 3008 3008 3007 3007 3007 3007 3006 3006 3006 3006 3006 3006 3006 3006 3006 3005 3005 3005 3004 3004 3004 3003 3003 3003 3003 3003 3003 3003 3003
2997 2998 2999 2999 3000 3000 3001 3001 3002 3002 3003 3003 3004 3004 3004 3005 3005 3005 3005 3006 3006 3006 3006 3007 3007 3007 3008 3008 3008 3009 3009 3010 3010 3010 3010 3010 3010 3011 3011 3011 3011 3010 3010 3010 3010 3010 3010 3010 3010 3010 3010 3009 3009 3008 3008 3007 3006 3006 3005 3005 3005 3004 3004 3004 3003 3003 3003 3003 3004 3003 3003 3003 3003 3002 3002 3002 3001 3001 3000 3000 3000 3000 3000 3000 3000 3000
2995 2996 2997 2997 2998 2998 2999 3000 3000 3000 3001 3001 3001 3002 3002 3002 3003 3003 3003 3004 3004 3004 3004 3005 3005 3005 3005 3006 3006 3007 3007 3008 3008 3008 3009 3009 3009 3009 3009 3009 3009 3009 3009 3008 3008 3008 3008 3008 3008 3008 3007 3007 3006 3005 3005 3004 3004 3003 3003 3003 3002 3001 3001 3000 3000 3000 3000 3000 3000 3000 3000 3000 3000 3000 2999 2999 2999 2998 2998 2998 2997 2997 2997 2998 2998 2998
2994 2995 2995 2996 2996 2997 2997 2998 2998 2998 2999 2999 2999 3000 3000 3000 3000 3000 3001 3001 3001 3002 3002 3002 3003 3003 3004 3004 3005 3005 3005 3006 3006 3006 3007 3007 3007 3007 3007 3007 3006 3006 3006 3006 3006 3006 3006 3005 3005 3005 3005 3004 3004 3003 3002 3001 3001 3000 3000 3000 2999 2999 2998 2998 2998 2998 2998 2998 2998 2997 2997 2997 2997 2997 2997 2996 2996 2996 2995 2995 2995 2995 2995 2995 2995 2995
2992 2993 2993 2994 2994 2995 2995 2995 2996 2996 2997 2997 2997 2997 2997 2998 2998 2998 2999 2999 2999 3000 3000 3000 3001 3001 3002 3002 3003 3003 3004 3004 3004 3005 3005 3005 3005 3005 3005 3005 3004 3004 3004 3004 3004 3004 3003 3003 3003 3002 3001 3001 3000 3000 3000 2999 2999 2998 2998 2997 2997 2996 2996 2995 2995 2995 2995 2995 2995 2995 2994 2994 2994 2994 2994 2994 2994 2993 2993 2992 2992 2992 2992 2992 2992 2993
2990 2991 2991 2992 2992 2993 2993 2993 2994 2994 2995 2995 2995 2995 2995 2995 2996 2996 2997 2997 2997 2998 2998 2999 2999 3000 3000 3000 3001 3001 3001 3002 3002 3002 3003 3003 3003 3002 3002 3002 3002 3002 3002 3001 3001 3001 3001 3000 3000 2999 2998 2998 2997 2997 2997 2997 2996 2996 2995 2995 2994 2994 2993 2993 2993 2993 2993 2992 2992 2992 2992 2991 2991 2991 2991 2991 2991 2991 2990 2990 2990 2990 2990 2990 2990 2990
2989 2989 2990 2990 2990 2991 2991 2991 2992 2992 2992 2992 2993 2993 2993 2994 2994 2994 2995 2995 2995 2996 2996 2997 2997 2997 2998 2998 2999 2999 2999 3000 3000 3000 3000 3000 3000 3000 3000 3000 3000 2999 2999 2999 2999 2999 2998 2998 2997 2997 2995 2995 2995 2995 2995 2994 2994 2994 2993 2992 2992 2991 2991 2990 2990 2990 2990 2990 2990 2989 2989 2989 2989 2989 2989 2989 2989 2988 2988 2987 2987 2987 2987 2987 2988 2988